Simultaneous Nadir Overpasses (SNOs) Predictions

Prediction of SNOs between GOES-15 and NOAA-20 Satellite Orbit:

Table of predicted SNOs for the next 14.0 days since TLE Epoch: 9/17/2022
Index Date Time (GOES-15) GOES-15 Lat,Lon NOAA-20 Lat,Lon Distance(km) Time Diff (sec)
1 09/17/2022 21:52:15 -0.34,-127.71 -0.07,-126.50 138.19 80
2 09/19/2022 10:14:03 0.32,-127.82 1.24,-131.77 451.03 80
3 09/20/2022 09:52:40 0.33,-127.85 0.18,-127.25 68.35 80
4 09/22/2022 21:55:53 -0.31,-127.87 -0.34,-128.04 19.17 80
5 09/25/2022 10:01:37 0.30,-128.01 0.49,-128.78 88.85 80
6 09/26/2022 09:40:12 0.31,-128.03 -0.51,-124.25 430.27 80
7 09/27/2022 22:02:09 -0.30,-128.00 -0.65,-129.56 178.03 80
8 09/28/2022 21:46:05 -0.30,-128.03 0.36,-125.03 341.14 80
9 09/30/2022 10:05:13 0.29,-128.13 0.79,-130.31 248.86 80
